FW6365 Weather Reports


time (UTC)temp
C
wind
direction
speed
KPH
gust
KPH
rain 1hr
cm
rain 24hr
cm
rain mn
cm
humidity
%
barometer
mb
20260509031025 13 333 1.6 12.9 0.00 0.00 0.00 78 1022.7
20260509030528 13 271 6.4 14.5 0.00 0.00 0.00 77 1022.8
20260509030044 14 250 4.8 14.5 0.00 0.00 0.00 76 1022.7
20260509025524 15 222 0.0 8.0 0.00 0.00 0.00 75 1022.7
20260509025025 14 275 3.2 9.7 0.00 0.00 0.00 75 1022.7
20260509024541 15 237 4.8 9.7 0.00 0.00 0.00 74 1022.6
20260509024025 15 273 1.6 9.7 0.00 0.00 0.00 74 1022.6
20260509023525 15 292 3.2 14.5 0.00 0.00 0.00 74 1022.5
20260509023042 15 288 1.6 14.5 0.00 0.00 0.00 74 1022.5
20260509022525 15 292 4.8 14.5 0.00 0.00 0.00 73 1022.5
20260509022025 15 255 6.4 14.5 0.00 0.00 0.00 72 1022.3
20260509021540 15 219 3.2 11.3 0.00 0.00 0.00 72 1022.3
20260509021027 15 198 3.2 11.3 0.00 0.00 0.00 72 1022.3
20260509020526 15 264 4.8 16.1 0.00 0.00 0.00 72 1022.4
20260509020047 15 296 6.4 16.1 0.00 0.00 0.00 73 1022.4
20260509015526 15 236 6.4 11.3 0.00 0.00 0.00 72 1022.4
20260509015025 15 300 6.4 11.3 0.00 0.00 0.00 71 1022.3
20260509014542 16 315 4.8 17.7 0.00 0.00 0.00 70 1022.3
20260509014025 15 265 4.8 17.7 0.00 0.00 0.00 72 1022.3
20260509013528 15 312 6.4 12.9 0.00 0.00 0.00 71 1022.4
20260509013048 15 278 3.2 19.3 0.00 0.00 0.00 72 1022.4
20260509012525 15 320 6.4 19.3 0.00 0.00 0.00 73 1022.4
20260509012025 15 248 4.8 12.9 0.00 0.00 0.00 72 1022.3
20260509011540 15 215 1.6 9.7 0.00 0.00 0.00 72 1022.4
20260509011027 15 283 3.2 11.3 0.00 0.00 0.00 71 1022.3
20260509010525 15 275 3.2 19.3 0.00 0.00 0.00 71 1022.4
20260509010042 15 259 6.4 19.3 0.00 0.00 0.00 71 1022.5
20260509005524 15 229 4.8 16.1 0.00 0.00 0.00 70 1022.5
20260509005028 15 279 8.0 17.7 0.00 0.00 0.00 70 1022.5
20260509004601 16 289 6.4 17.7 0.00 0.00 0.00 70 1022.6
20260509004028 15 286 4.8 16.1 0.00 0.00 0.00 70 1022.6
20260509003525 15 136 6.4 17.7 0.00 0.00 0.00 71 1022.6
20260509003046 15 213 4.8 17.7 0.00 0.00 0.00 71 1022.5
20260509002525 15 227 6.4 17.7 0.00 0.00 0.00 70 1022.6
20260509002025 15 246 4.8 17.7 0.00 0.00 0.00 69 1022.5
20260509001542 15 233 8.0 19.3 0.00 0.00 0.00 69 1022.5
20260509001025 16 224 11.3 19.3 0.00 0.00 0.00 68 1022.5
20260509000524 16 276 6.4 14.5 0.00 0.00 0.00 69 1022.4
20260509000041 16 248 3.2 16.1 0.00 0.00 0.00 68 1022.5
20260508235528 16 294 6.4 16.1 0.00 0.00 0.00 68 1022.5
20260508235025 16 244 4.8 14.5 0.00 0.00 0.00 68 1022.4
20260508234539 16 271 6.4 19.3 0.00 0.00 0.00 66 1022.5
20260508234025 16 157 9.7 19.3 0.00 0.00 0.00 65 1022.5
20260508233525 16 267 8.0 16.1 0.00 0.00 0.00 66 1022.5
20260508233038 16 257 4.8 16.1 0.00 0.00 0.00 67 1022.5
20260508232526 16 211 6.4 16.1 0.00 0.00 0.00 69 1022.6
20260508232028 16 192 6.4 16.1 0.00 0.00 0.00 68 1022.4
20260508231541 16 246 11.3 16.1 0.00 0.00 0.00 66 1022.4
20260508231025 16 225 3.2 17.7 0.00 0.00 0.00 67 1022.4
20260508230524 16 286 8.0 19.3 0.00 0.00 0.00 65 1022.4
20260508230053 16 252 8.0 19.3 0.00 0.00 0.00 67 1022.4
20260508225525 16 222 4.8 14.5 0.00 0.00 0.00 66 1022.4
20260508225024 16 270 4.8 16.1 0.00 0.00 0.00 66 1022.4
20260508224541 15 244 8.0 16.1 0.00 0.00 0.00 67 1022.5
20260508224024 15 266 3.2 11.3 0.00 0.00 0.00 68 1022.5
20260508223521 15 249 6.4 12.9 0.00 0.00 0.00 67 1022.4
20260508223040 15 311 6.4 12.9 0.00 0.00 0.00 67 1022.5
20260508222524 15 284 4.8 17.7 0.00 0.00 0.00 69 1022.6
20260508222025 15 158 8.0 17.7 0.00 0.00 0.00 67 1022.5
20260508221540 15 157 8.0 17.7 0.00 0.00 0.00 67 1022.6
20260508221025 15 212 8.0 17.7 0.00 0.00 0.00 68 1022.6
20260508220524 15 182 8.0 19.3 0.00 0.00 0.00 69 1022.6
20260508220050 15 236 8.0 19.3 0.00 0.00 0.00 68 1022.6
20260508215525 15 168 9.7 17.7 0.00 0.00 0.00 68 1022.6
20260508215025 15 209 8.0 16.1 0.00 0.00 0.00 68 1022.6
20260508214547 15 225 6.4 19.3 0.00 0.00 0.00 67 1022.5
20260508214028 15 208 11.3 19.3 0.00 0.00 0.00 65 1022.6
20260508213524 15 215 8.0 17.7 0.00 0.00 0.00 65 1022.4
20260508213041 15 263 6.4 14.5 0.00 0.00 0.00 65 1022.5
20260508212524 15 250 4.8 14.5 0.00 0.00 0.00 65 1022.4
20260508212024 15 241 4.8 14.5 0.00 0.00 0.00 66 1022.4
20260508211543 15 207 8.0 19.3 0.00 0.00 0.00 68 1022.4
20260508211027 15 185 8.0 19.3 0.00 0.00 0.00 67 1022.4
20260508210527 15 258 8.0 19.3 0.00 0.00 0.00 67 1022.3
20260508210057 15 181 8.0 19.3 0.00 0.00 0.00 67 1022.2
20260508205527 15 229 6.4 19.3 0.00 0.00 0.00 67 1022.2
20260508205029 15 258 9.7 19.3 0.00 0.00 0.00 66 1022.2
20260508204539 15 195 8.0 17.7 0.00 0.00 0.00 66 1022.1
20260508204026 15 179 6.4 17.7 0.00 0.00 0.00 65 1022.1
20260508203526 15 217 6.4 17.7 0.00 0.00 0.00 67 1022.0
20260508203040 15 217 6.4 20.9 0.00 0.00 0.00 67 1022.0
20260508202527 15 200 9.7 20.9 0.00 0.00 0.00 66 1022.0
20260508202027 15 191 8.0 20.9 0.00 0.00 0.00 65 1022.0
20260508201544 14 219 6.4 19.3 0.00 0.00 0.00 66 1022.0
20260508201027 14 182 11.3 20.9 0.00 0.00 0.00 67 1022.0
20260508200527 14 197 6.4 20.9 0.00 0.00 0.00 66 1022.0
20260508200047 14 261 11.3 20.9 0.00 0.00 0.00 67 1021.9
20260508195526 14 233 11.3 20.9 0.00 0.00 0.00 68 1021.9
20260508195030 14 245 9.7 17.7 0.00 0.00 0.00 66 1021.9
20260508194546 14 199 8.0 19.3 0.00 0.00 0.00 68 1021.9
20260508194026 14 259 9.7 19.3 0.00 0.00 0.00 69 1021.8
20260508193527 14 202 8.0 17.7 0.00 0.00 0.00 70 1021.9
20260508193045 14 197 6.4 16.1 0.00 0.00 0.00 69 1021.8
20260508192526 14 259 6.4 16.1 0.00 0.00 0.00 70 1021.8
20260508192026 13 253 9.7 19.3 0.00 0.00 0.00 71 1021.9
20260508191539 13 195 11.3 22.5 0.00 0.00 0.00 71 1022.0
20260508191027 13 205 11.3 22.5 0.00 0.00 0.00 69 1021.9
20260508190526 13 182 11.3 20.9 0.00 0.00 0.00 72 1021.9
20260508190053 13 194 8.0 14.5 0.00 0.00 0.00 73 1021.9
20260508185527 13 258 6.4 14.5 0.00 0.00 0.00 75 1021.9
20260508185028 13 273 4.8 14.5 0.00 0.00 0.00 73 1021.9
20260508184556 12 225 8.0 12.9 0.00 0.00 0.00 73 1021.9
20260508184026 12 220 8.0 17.7 0.00 0.00 0.00 74 1021.9
20260508183526 12 209 9.7 17.7 0.00 0.00 0.00 74 1021.9
20260508183040 12 193 6.4 19.3 0.00 0.00 0.00 75 1021.9
20260508182527 12 256 9.7 19.3 0.00 0.00 0.00 74 1022.0
20260508182026 12 210 8.0 14.5 0.00 0.00 0.00 74 1022.0
20260508181550 12 232 4.8 14.5 0.00 0.00 0.00 76 1021.9
20260508181027 12 243 6.4 14.5 0.00 0.00 0.00 75 1021.9
20260508180526 12 236 4.8 14.5 0.00 0.00 0.00 75 1021.8
20260508180039 12 196 6.4 14.5 0.00 0.00 0.00 76 1021.7
20260508175527 12 242 6.4 14.5 0.00 0.00 0.00 75 1021.9
20260508175029 11 230 8.0 16.1 0.00 0.00 0.00 75 1021.8
20260508174546 11 198 6.4 17.7 0.00 0.00 0.00 77 1021.7
20260508174027 11 266 6.4 17.7 0.00 0.00 0.00 76 1021.7
20260508173527 11 181 11.3 17.7 0.00 0.00 0.00 76 1021.7
20260508173046 11 206 4.8 16.1 0.00 0.00 0.00 77 1021.7
20260508172527 11 190 4.8 9.7 0.00 0.00 0.00 77 1021.6
20260508172027 11 239 4.8 16.1 0.00 0.00 0.00 78 1021.5
20260508171541 11 223 6.4 16.1 0.00 0.00 0.00 77 1021.5
20260508171026 11 228 8.0 14.5 0.00 0.00 0.00 77 1021.4
20260508170526 11 237 4.8 14.5 0.00 0.00 0.00 77 1021.2
20260508170042 11 240 6.4 14.5 0.00 0.00 0.00 77 1021.1
20260508165526 11 205 4.8 12.9 0.00 0.00 0.00 77 1021.0
20260508165026 11 186 4.8 14.5 0.00 0.00 0.00 79 1021.0
20260508164554 11 229 4.8 14.5 0.00 0.00 0.00 79 1021.1
20260508164027 11 236 8.0 14.5 0.00 0.00 0.00 79 1021.3
20260508163531 11 239 4.8 20.9 0.00 0.00 0.00 79 1021.4
20260508163047 11 202 9.7 20.9 0.00 0.00 0.00 79 1021.2
20260508162527 11 216 4.8 16.1 0.00 0.00 0.00 79 1021.3
20260508162029 11 240 8.0 22.5 0.00 0.00 0.00 78 1021.1
20260508161549 11 240 8.0 22.5 0.00 0.00 0.00 78 1020.9
20260508161027 11 169 8.0 16.1 0.00 0.00 0.00 77 1020.8
20260508160526 11 221 4.8 14.5 0.00 0.00 0.00 79 1020.8
20260508160043 11 207 4.8 14.5 0.00 0.00 0.00 79 1020.7
20260508155529 11 168 8.0 14.5 0.00 0.00 0.00 79 1020.7
20260508155027 11 251 4.8 14.5 0.00 0.00 0.00 80 1020.6
20260508154543 11 219 4.8 11.3 0.00 0.00 0.00 80 1020.7
20260508154026 10 248 6.4 11.3 0.00 0.00 0.00 81 1020.7
20260508153527 10 219 6.4 11.3 0.00 0.00 0.00 81 1020.6
20260508153041 10 242 4.8 12.9 0.00 0.00 0.00 81 1020.6
20260508152526 10 235 3.2 14.5 0.00 0.00 0.00 80 1020.4
20260508152027 10 179 6.4 14.5 0.00 0.00 0.00 81 1020.4
20260508151541 10 190 8.0 20.9 0.00 0.00 0.00 81 1020.4
20260508151028 10 248 9.7 20.9 0.00 0.00 0.00 81 1020.4
20260508150529 10 219 6.4 12.9 0.00 0.00 0.00 81 1020.5
20260508150040 10 227 6.4 17.7 0.00 0.00 0.00 82 1020.4
20260508145527 10 236 6.4 17.7 0.00 0.00 0.00 81 1020.2
20260508145027 10 240 6.4 12.9 0.00 0.00 0.00 82 1020.3
20260508144636 11 180 4.8 16.1 0.00 0.00 0.00 81 1020.3
20260508144026 11 207 8.0 16.1 0.00 0.00 0.00 82 1020.4
20260508143527 11 182 6.4 14.5 0.00 0.00 0.00 81 1020.3
20260508143044 11 194 8.0 14.5 0.00 0.00 0.00 83 1020.4
20260508142528 10 206 6.4 11.3 0.00 0.00 0.00 83 1020.4
20260508142026 10 199 4.8 17.7 0.00 0.00 0.00 82 1020.4
20260508141551 10 226 6.4 17.7 0.00 0.00 0.00 84 1020.3
20260508141026 10 209 8.0 17.7 0.00 0.00 0.00 84 1020.3
20260508140528 10 213 9.7 16.1 0.00 0.00 0.00 85 1020.3
20260508140048 10 197 4.8 12.9 0.00 0.00 0.00 86 1020.0
20260508135529 9 188 6.4 12.9 0.00 0.00 0.00 85 1020.0
20260508135029 9 210 4.8 11.3 0.00 0.00 0.00 86 1019.9
20260508134544 9 211 4.8 16.1 0.00 0.00 0.00 86 1019.8
20260508134028 9 208 6.4 17.7 0.00 0.00 0.00 86 1019.6
20260508133529 8 225 8.0 17.7 0.00 0.00 0.00 87 1019.7
20260508133108 8 200 8.0 14.5 0.00 0.00 0.00 88 1019.6
20260508132526 8 223 4.8 11.3 0.00 0.00 0.00 88 1019.6
20260508132026 8 163 4.8 14.5 0.00 0.00 0.00 88 1019.5
20260508131542 8 196 6.4 14.5 0.00 0.00 0.00 88 1019.4
20260508131029 8 184 8.0 12.9 0.00 0.00 0.00 88 1019.4
20260508130526 8 155 4.8 12.9 0.00 0.00 0.00 88 1019.4
20260508130045 8 152 3.2 16.1 0.00 0.00 0.00 88 1019.3
20260508125527 8 190 8.0 16.1 0.00 0.00 0.00 89 1019.3
20260508125027 8 165 4.8 14.5 0.00 0.00 0.00 89 1019.0
20260508124540 8 196 3.2 16.1 0.00 0.00 0.00 89 1018.9
20260508124027 8 235 6.4 16.1 0.00 0.00 0.00 89 1018.9
20260508123531 8 174 4.8 9.7 0.00 0.00 0.00 89 1018.8
20260508123059 8 155 4.8 9.7 0.00 0.00 0.00 89 1018.8
20260508122526 8 198 4.8 11.3 0.00 0.00 0.00 88 1018.8
20260508122026 8 175 3.2 12.9 0.00 0.00 0.00 88 1018.9
20260508121540 8 182 6.4 12.9 0.00 0.00 0.00 88 1018.9
20260508121028 8 198 4.8 11.3 0.00 0.00 0.00 89 1018.8
20260508120526 8 205 3.2 12.9 0.00 0.00 0.00 89 1018.9
20260508120040 8 259 4.8 14.5 0.00 0.00 0.00 90 1018.7
20260508115528 8 166 4.8 14.5 0.00 0.00 0.00 91 1018.7
20260508115026 8 207 4.8 14.5 0.00 0.00 0.00 91 1018.7
20260508114546 8 211 4.8 14.5 0.00 0.00 0.00 93 1018.6
20260508114026 7 219 3.2 8.0 0.00 0.00 0.00 94 1018.8
20260508113527 7 220 3.2 8.0 0.00 0.00 0.00 94 1018.6
20260508113059 7 159 0.0 3.2 0.00 0.00 0.00 94 1018.5
20260508112529 7 162 1.6 3.2 0.00 0.00 0.00 95 1018.6
20260508112027 7 126 1.6 3.2 0.00 0.00 0.00 95 1018.5
20260508111545 7 123 1.6 3.2 0.00 0.00 0.00 95 1018.5
20260508111025 7 118 1.6 3.2 0.00 0.00 0.00 95 1018.4
20260508110527 7 107 0.0 3.2 0.00 0.00 0.00 95 1018.3
20260508110050 7 157 1.6 3.2 0.00 0.00 0.00 95 1018.3
20260508105526 7 113 1.6 3.2 0.00 0.00 0.00 95 1018.3
20260508105027 7 138 0.0 3.2 0.00 0.00 0.00 95 1018.1
20260508104541 7 142 1.6 3.2 0.00 0.00 0.00 95 1018.1
20260508104026 6 114 1.6 3.2 0.00 0.00 0.00 95 1018.1
20260508103526 6 115 0.0 1.6 0.00 0.00 0.00 94 1018.1
20260508103047 7 0 0.0 1.6 0.00 0.00 0.00 95 1018.0
20260508102526 7 115 1.6 1.6 0.00 0.00 0.00 95 1017.9
20260508102027 7 130 1.6 1.6 0.00 0.00 0.00 95 1017.8
20260508101537 7 121 0.0 1.6 0.00 0.00 0.00 94 1017.9
20260508101026 7 121 0.0 1.6 0.00 0.00 0.00 95 1017.7
20260508100526 7 121 0.0 1.6 0.00 0.00 0.00 94 1017.7
20260508100043 7 121 0.0 0.0 0.00 0.00 0.00 94 1017.7
20260508095526 7 0 0.0 0.0 0.00 0.00 0.00 94 1017.7
20260508095025 7 0 0.0 1.6 0.00 0.00 0.00 94 1017.7
20260508094541 7 121 0.0 1.6 0.00 0.00 0.00 94 1017.7
20260508094025 7 121 0.0 1.6 0.00 0.00 0.00 94 1017.6
20260508093526 7 0 0.0 3.2 0.00 0.00 0.00 93 1017.5
20260508093041 7 121 1.6 3.2 0.00 0.00 0.00 94 1017.7
20260508092526 7 121 0.0 1.6 0.00 0.00 0.00 94 1017.6
20260508092026 7 121 0.0 1.6 0.00 0.00 0.00 94 1017.6
20260508091551 7 121 1.6 1.6 0.00 0.00 0.00 94 1017.7
20260508091026 7 0 0.0 0.0 0.00 0.00 0.00 93 1017.7
20260508090526 7 0 0.0 1.6 0.00 0.00 0.00 93 1017.6
20260508090104 7 0 0.0 1.6 0.00 0.00 0.00 94 1017.6
20260508085526 7 121 0.0 1.6 0.00 0.00 0.00 94 1017.5
20260508085026 7 121 0.0 1.6 0.00 0.00 0.00 94 1017.5
20260508084542 7 0 0.0 1.6 0.00 0.00 0.00 94 1017.6
20260508084028 7 121 0.0 1.6 0.00 0.00 0.00 93 1017.6
20260508083524 7 121 1.6 1.6 0.00 0.00 0.00 94 1017.6
20260508083043 7 121 0.0 1.6 0.00 0.00 0.00 93 1017.5
20260508082529 7 121 0.0 1.6 0.00 0.00 0.00 93 1017.5
20260508082030 7 0 0.0 1.6 0.00 0.00 0.00 93 1017.5
20260508081541 7 121 0.0 1.6 0.00 0.00 0.00 93 1017.5
20260508081028 8 0 0.0 1.6 0.00 0.00 0.00 93 1017.5
20260508080529 8 121 0.0 1.6 0.00 0.00 0.00 93 1017.4
20260508080040 7 143 0.0 1.6 0.00 0.00 0.00 93 1017.4
20260508075527 7 143 0.0 1.6 0.00 0.00 0.00 93 1017.4
20260508075027 8 123 0.0 1.6 0.00 0.00 0.00 93 1017.3
20260508074544 8 123 0.0 0.0 0.00 0.00 0.00 92 1017.3
20260508074025 8 0 0.0 0.0 0.00 0.00 0.00 92 1017.2
20260508073527 8 0 0.0 0.0 0.00 0.00 0.00 92 1017.3
20260508073040 8 0 0.0 1.6 0.00 0.00 0.00 91 1017.1
20260508072530 8 0 0.0 1.6 0.00 0.00 0.00 92 1017.1
20260508072029 8 121 1.6 1.6 0.00 0.00 0.00 92 1017.2
20260508071554 8 121 0.0 1.6 0.00 0.00 0.00 92 1017.1
20260508071028 8 121 0.0 1.6 0.00 0.00 0.00 92 1017.1
20260508070526 8 121 0.0 1.6 0.00 0.00 0.00 92 1017.2
20260508070044 8 0 0.0 1.6 0.00 0.00 0.00 92 1017.3
20260508065526 8 121 0.0 1.6 0.00 0.00 0.00 92 1017.3
20260508065025 8 121 1.6 1.6 0.00 0.00 0.00 92 1017.3
20260508064543 8 121 0.0 1.6 0.00 0.00 0.00 92 1017.4
20260508064026 8 121 0.0 1.6 0.00 0.00 0.00 91 1017.4
20260508063526 8 0 0.0 1.6 0.00 0.00 0.00 91 1017.3
20260508063041 8 0 0.0 1.6 0.00 0.00 0.00 91 1017.3
20260508062525 9 121 0.0 1.6 0.00 0.00 0.00 90 1017.4
20260508062025 9 0 0.0 1.6 0.00 0.00 0.00 90 1017.3
20260508061540 9 121 1.6 1.6 0.00 0.00 0.00 90 1017.3
20260508061026 9 0 0.0 1.6 0.00 0.00 0.00 90 1017.3
20260508060525 9 121 0.0 1.6 0.00 0.00 0.00 89 1017.3
20260508060040 10 121 0.0 1.6 0.00 0.00 0.00 88 1017.3
20260508055524 10 130 1.6 3.2 0.00 0.00 0.00 88 1017.3
20260508055024 10 137 1.6 3.2 0.00 0.00 0.00 88 1017.4
20260508054540 10 137 1.6 1.6 0.00 0.00 0.00 88 1017.3
20260508054025 10 137 0.0 1.6 0.00 0.00 0.00 88 1017.3
20260508053527 10 137 0.0 1.6 0.00 0.00 0.00 87 1017.3
20260508053100 10 0 0.0 3.2 0.00 0.00 0.00 87 1017.4
20260508052525 10 136 1.6 4.8 0.00 0.00 0.00 88 1017.5
20260508052023 10 138 1.6 6.4 0.00 0.00 0.00 87 1017.4
20260508051545 10 156 3.2 6.4 0.00 0.00 0.00 86 1017.5
20260508051025 10 156 1.6 4.8 0.00 0.00 0.00 85 1017.4
20260508050525 11 128 1.6 3.2 0.00 0.00 0.00 85 1017.4
20260508050042 11 160 1.6 3.2 0.00 0.00 0.00 85 1017.4
20260508045528 11 163 1.6 3.2 0.00 0.00 0.00 85 1017.4
20260508045024 11 156 1.6 3.2 0.00 0.00 0.00 84 1017.5
20260508044540 11 156 3.2 3.2 0.00 0.00 0.00 83 1017.4
20260508044027 11 159 0.0 1.6 0.00 0.00 0.00 82 1017.4
20260508043525 11 159 0.0 1.6 0.00 0.00 0.00 83 1017.3
20260508043047 11 0 0.0 1.6 0.00 0.00 0.00 83 1017.3
20260508042524 11 146 0.0 1.6 0.00 0.00 0.00 83 1017.4
20260508042024 11 0 0.0 1.6 0.00 0.00 0.00 84 1017.4
20260508041610 11 165 0.0 1.6 0.00 0.00 0.00 84 1017.4
20260508041024 11 165 0.0 1.6 0.00 0.00 0.00 83 1017.5
20260508040524 12 166 0.0 1.6 0.00 0.00 0.00 84 1017.4
20260508040104 12 0 0.0 1.6 0.00 0.00 0.00 82 1017.4
20260508035527 12 0 0.0 1.6 0.00 0.00 0.00 79 1017.3
20260508035027 12 0 0.0 1.6 0.00 0.00 0.00 78 1017.2
20260508034541 13 0 0.0 1.6 0.00 0.00 0.00 78 1017.2
20260508034025 13 0 0.0 1.6 0.00 0.00 0.00 77 1017.1
20260508033524 13 126 0.0 3.2 0.00 0.00 0.00 76 1016.9
20260508033040 13 193 1.6 4.8 0.00 0.00 0.00 75 1016.8
20260508032525 14 205 1.6 4.8 0.00 0.00 0.00 73 1016.8
20260508032025 14 142 1.6 3.2 0.00 0.00 0.00 73 1016.9
20260508031540 15 151 1.6 3.2 0.00 0.00 0.00 72 1016.9